DW6903 Weather Reports


Display with metric or nautical units.
time (UTC)temp
F
wind
direction
speed
MPH
gust
MPH
rain 1hr
in
rain 24hr
in
rain mn
in
humidity
%
barometer
mb
20260505040904 56 178 6.0 14.0 0.00 0.00 0.00 60 1008.5
20260505040110 56 176 6.0 14.0 0.00 0.00 0.00 60 1008.4
20260505035403 57 179 6.0 11.0 0.00 0.00 0.00 59 1008.3
20260505034503 57 179 6.0 21.0 0.00 0.00 0.00 59 1008.4
20260505033603 57 185 7.0 13.0 0.00 0.00 0.00 58 1008.4
20260505032809 57 180 6.0 13.0 0.00 0.00 0.00 58 1008.3
20260505031803 58 177 8.0 18.0 0.00 0.00 0.00 57 1008.2
20260505030904 58 180 7.0 17.0 0.00 0.00 0.00 56 1008.2
20260505030003 58 184 6.0 13.0 0.00 0.00 0.00 55 1008.3
20260505025403 58 184 6.0 13.0 0.00 0.00 0.00 55 1008.3
20260505024503 59 175 6.0 16.0 0.00 0.00 0.00 55 1008.3
20260505023604 59 167 7.0 13.0 0.00 0.00 0.00 54 1008.4
20260505022703 59 177 8.0 17.0 0.00 0.00 0.00 53 1008.3
20260505021803 60 175 7.0 14.0 0.00 0.00 0.00 53 1008.3
20260505020903 60 173 8.0 20.0 0.00 0.00 0.00 52 1008.3
20260505020003 60 176 8.0 16.0 0.00 0.00 0.00 52 1008.3
20260505015403 60 175 8.0 19.0 0.00 0.00 0.00 52 1008.2
20260505014503 60 171 6.0 17.0 0.00 0.00 0.00 52 1008.0
20260505013603 61 174 7.0 17.0 0.00 0.00 0.00 51 1007.9
20260505012704 61 177 8.0 19.0 0.00 0.00 0.00 50 1007.8
20260505011803 62 176 6.0 16.0 0.00 0.00 0.00 49 1007.5
20260505010904 62 186 8.0 19.0 0.00 0.00 0.00 49 1007.4
20260505010003 62 184 9.0 24.0 0.00 0.00 0.00 48 1007.2
20260505005509 63 183 10.0 23.0 0.00 0.00 0.00 47 1007.1
20260505004504 63 181 11.0 27.0 0.00 0.00 0.00 47 1006.9
20260505003608 63 179 11.0 20.0 0.00 0.00 0.00 46 1006.6
20260505002708 64 178 10.0 22.0 0.00 0.00 0.00 45 1006.4
20260505001910 64 176 10.0 22.0 0.00 0.00 0.00 45 1006.2
20260505000903 65 179 10.0 24.0 0.00 0.00 0.00 43 1006.0
20260505000004 66 187 7.0 23.0 0.00 0.00 0.00 41 1005.7
20260504235403 67 180 4.0 13.0 0.00 0.00 0.00 38 1005.5
20260504234503 67 203 3.0 8.0 0.00 0.00 0.00 36 1005.2
20260504233709 68 216 4.0 10.0 0.00 0.00 0.00 35 1005.2
20260504232704 68 214 7.0 15.0 0.00 0.00 0.00 35 1005.1
20260504231910 69 219 5.0 15.0 0.00 0.00 0.00 34 1005.0
20260504230904 69 206 6.0 13.0 0.00 0.00 0.00 34 1004.9
20260504230110 70 201 5.0 11.0 0.00 0.00 0.00 34 1004.7
20260504225403 70 197 5.0 10.0 0.00 0.00 0.00 34 1004.7
20260504224503 70 212 7.0 18.0 0.00 0.00 0.00 34 1004.7
20260504223710 70 206 7.0 18.0 0.00 0.00 0.00 34 1004.6
20260504222809 70 201 6.0 13.0 0.00 0.00 0.00 34 1004.5
20260504221803 70 214 8.0 17.0 0.00 0.00 0.00 34 1004.6
20260504220903 70 219 9.0 19.0 0.00 0.00 0.00 34 1004.6
20260504220003 70 217 9.0 17.0 0.00 0.00 0.00 33 1004.5
20260504215403 70 221 8.0 17.0 0.00 0.00 0.00 32 1004.6
20260504214503 70 213 7.0 17.0 0.00 0.00 0.00 33 1004.5
20260504213603 70 226 8.0 19.0 0.00 0.00 0.00 33 1004.6
20260504212703 71 211 7.0 21.0 0.00 0.00 0.00 33 1004.5
20260504211803 71 218 9.0 21.0 0.00 0.00 0.00 33 1004.6
20260504210904 71 213 7.0 16.0 0.00 0.00 0.00 33 1004.6
20260504210003 70 213 7.0 15.0 0.00 0.00 0.00 33 1004.6
20260504205403 70 214 7.0 14.0 0.00 0.00 0.00 33 1004.6
20260504204504 70 230 8.0 21.0 0.00 0.00 0.00 33 1004.5
20260504203603 70 209 8.0 18.0 0.00 0.00 0.00 33 1004.6
20260504202704 69 202 7.0 16.0 0.00 0.00 0.00 32 1004.5
20260504201803 69 204 7.0 21.0 0.00 0.00 0.00 33 1004.5
20260504200903 69 213 11.0 25.0 0.00 0.00 0.00 32 1004.5
20260504200003 69 203 9.0 24.0 0.00 0.00 0.00 32 1004.7
20260504195404 69 212 9.0 19.0 0.00 0.00 0.00 31 1004.6
20260504194503 69 213 11.0 22.0 0.00 0.00 0.00 32 1004.6
20260504193604 70 226 10.0 25.0 0.00 0.00 0.00 31 1004.7
20260504192703 69 216 12.0 27.0 0.00 0.00 0.00 32 1004.6
20260504191803 70 204 12.0 28.0 0.00 0.00 0.00 32 1004.7
20260504190903 69 191 10.0 26.0 0.00 0.00 0.00 31 1004.8
20260504190109 69 202 10.0 21.0 0.00 0.00 0.00 32 1004.8
20260504185404 69 228 12.0 23.0 0.00 0.00 0.00 34 1004.8
20260504184505 69 210 7.0 20.0 0.00 0.00 0.00 31 1004.9
20260504183603 69 208 10.0 25.0 0.00 0.00 0.00 32 1005.0
20260504182810 69 219 10.0 24.0 0.00 0.00 0.00 32 1005.1
20260504181803 68 206 12.0 26.0 0.00 0.00 0.00 32 1005.1
20260504180903 68 189 11.0 26.0 0.00 0.00 0.00 33 1005.0
20260504180004 68 206 12.0 29.0 0.00 0.00 0.00 33 1005.1
20260504175404 68 204 11.0 29.0 0.00 0.00 0.00 33 1005.1
20260504174503 68 214 12.0 30.0 0.00 0.00 0.00 34 1005.3
20260504173603 67 215 13.0 26.0 0.00 0.00 0.00 35 1005.5
20260504172703 68 202 11.0 27.0 0.00 0.00 0.00 34 1005.5
20260504171804 67 197 12.0 27.0 0.00 0.00 0.00 34 1005.5
20260504170904 66 199 12.0 26.0 0.00 0.00 0.00 35 1005.4
20260504150903 63 216 10.0 21.0 0.00 0.00 0.00 42 1006.9
20260504140904 61 203 9.0 20.0 0.00 0.00 0.00 45 1007.5
20260504130109 57 218 9.0 21.0 0.00 0.00 0.00 47 1008.1
20260504090109 45 189 4.0 9.0 0.00 0.00 0.00 58 1008.4
20260504081803 45 185 2.0 7.0 0.00 0.00 0.00 59 1008.7
20260504080903 44 191 3.0 9.0 0.00 0.00 0.00 59 1008.7
20260504050004 42 194 1.0 7.0 0.00 0.00 0.00 59 1008.5
20260504045510 42 192 2.0 8.0 0.00 0.00 0.00 59 1008.4
20260504044503 42 197 2.0 5.0 0.00 0.00 0.00 59 1008.5
20260504043603 42 205 2.0 5.0 0.00 0.00 0.00 59 1008.5
20260504042703 42 199 3.0 6.0 0.00 0.00 0.00 59 1008.5